Flag for Canada Weather past 2 weeks in Cape Dorset, Nunavut Territory, Canada

Now
16 °F

Partly sunny.


Feels Like: -1 °F
Forecast: N/A
Wind: 20 mph from Northeast

Location: Cape Dorset

Current Time: Oct 25, 2014 at 4:58:22 PM

Latest Report: Oct 25, 2014 at 4:00 PM


Visibility: 9 mi

Pressure: 29.97 "Hg

Humidity: 93%

Dew point: 14 °F

Location of Cape DorsetLocation

Historic Weather in Cape Dorset — Graph

°F

Cape Dorset temperature yesterday

Maximum temperature yesterday: 21 °F (at 8:00 PM)
Minimum temperature yesterday: 14 °F (at 4:00 AM)
Average temperature yesterday: 18 °F

Past Weeks' High & Low Weather Summary

 TemperatureHumidityPressure
High34 °F (Oct 22, 12:49 AM)100% (Oct 10, 11:58 PM)30.30 "Hg (Oct 10, 11:58 PM)
Low14 °F (Oct 23, 6:54 PM)68% (Oct 23, 3:00 PM)29.10 "Hg (Oct 10, 11:58 PM)
Average26 °F88%29.78 "Hg
* Reported Oct 10 3:00 PM — Oct 25 3:00 PM, Cape Dorset, Weather by CustomWeather, © 2014

Note: Actual official high and low records may vary slightly from our data, if they occured in-between our weather recording intervals... More about our weather records

Advertising

Cape Dorset weather history for previous 24 hours

 ConditionsComfort  
Time TempWeatherWind HumidityBarometerVisibility
3:00 PM
Oct 25
18 °FPartly sunny.20 mph86%29.98 "Hg9 mi
2:00 PM19 °FOvercast.24 mph79%29.96 "Hg9 mi
1:00 PM19 °FOvercast.24 mph86%29.98 "Hg9 mi
12:00 PM19 °FOvercast.25 mph86%29.98 "Hg9 mi
11:00 AM19 °FOvercast.28 mph86%29.98 "Hg9 mi
10:00 AM19 °FOvercast.25 mph86%29.99 "Hg9 mi
9:00 AM18 °FOvercast.28 mph86%30.00 "Hg9 mi
8:00 AM18 °FOvercast.30 mph86%30.01 "Hg9 mi
7:00 AM18 °FOvercast.33 mph79%30.02 "Hg9 mi
6:00 AM18 °FOvercast.30 mph86%30.03 "Hg9 mi
5:00 AM19 °FOvercast.28 mph79%30.05 "Hg9 mi
4:00 AM19 °FOvercast.28 mph79%30.07 "Hg9 mi
3:00 AM19 °FOvercast.28 mph79%30.07 "Hg9 mi
2:00 AM21 °FOvercast.23 mph74%30.09 "Hg9 mi
1:00 AM21 °FOvercast.18 mph80%30.11 "Hg9 mi
12:00 AM21 °FOvercast.20 mph74%30.13 "Hg9 mi
11:00 PM
Oct 24
21 °FOvercast.20 mph74%30.14 "Hg9 mi
10:00 PM21 °FOvercast.18 mph80%30.15 "Hg9 mi
9:00 PM21 °FOvercast.15 mph74%30.19 "Hg9 mi
8:00 PM21 °FOvercast.17 mph74%30.20 "Hg9 mi
7:00 PM19 °FOvercast.16 mph79%30.21 "Hg9 mi
6:00 PM19 °FLight snow. Overcast.14 mph79%30.22 "Hg9 mi
5:00 PM19 °FOvercast.15 mph79%30.22 "Hg9 mi
4:00 PM19 °FOvercast.7 mph73%30.24 "Hg9 mi
Weather by CustomWeather, © 2014

See weather overviewHow to use our weather pages